Regional Weather Roundup
Issued by NWS Charleston, WV

Home | Current Version | Previous Version | Graphics & Text | Print | Product List | Glossary On
Versions: 1 2 3 4 5 6 7 8 9 10 11 12 13 14 15 16 17 18 19 20 21 22 23 24 25 26 27 28 29 30 31 32 33 34 35 36 37 38 39 40 41 42 43 44 45 46 47 48 49 50
326
ASUS41 KRLX 161910
RWRRLX
West Virginia Regional Weather Roundup
National Weather Service Charleston WV
200 PM EST MON JAN 16 2017

Note: "fair" indicates few or no clouds below 12,000 feet with no
significant weather and/or obstructions to visibility.

WVZ003-162000-
Northern Panhandle of West Virginia

CITY           SKY/WX    TMP DP  RH WIND       PRES   REMARKS
WHEELING       CLOUDY    40  32  73 E5        30.23F
$$

WVZ009-162000-
Northwest West Virginia

CITY           SKY/WX    TMP DP  RH WIND       PRES   REMARKS
PARKERSBURG    SUNNY     52  42  69 CALM      30.26F
$$

WVZ006-162000-
Western West Virginia

CITY           SKY/WX    TMP DP  RH WIND       PRES   REMARKS
HUNTINGTON     CLOUDY    51  46  83 CALM      30.23F
$$

WVZ015-162000-
West Central West Virginia

CITY           SKY/WX    TMP DP  RH WIND       PRES   REMARKS
CHARLESTON     CLOUDY    54  48  80 CALM      30.23F
$$

WVZ022-031-162000-
North Central West Virginia

CITY           SKY/WX    TMP DP  RH WIND       PRES   REMARKS
CLARKSBURG     CLOUDY    49  43  80 W3        30.24F
MORGANTOWN     CLOUDY    43  35  73 CALM      30.25S
$$

WVZ025-035-042-045-162000-
Southern West Virginia

CITY           SKY/WX    TMP DP  RH WIND       PRES   REMARKS
BECKLEY        CLOUDY    60  51  72 SW6       30.25F
LOGAN          CLOUDY    59  54  82 CALM      30.24F
BLUEFIELD      PTSUNNY   60  49  66 S7        30.26F
LEWISBURG      CLOUDY    47  46  96 CALM      30.28F
$$

WVZ047-162000-
Northern Mountains of West Virginia

CITY           SKY/WX    TMP DP  RH WIND       PRES   REMARKS
ELKINS         CLOUDY    52  44  74 CALM      30.24F
$$

WVZ052-162000-
Eastern Panhandle of West Virginia

CITY           SKY/WX    TMP DP  RH WIND       PRES   REMARKS
MARTINSBURG    CLOUDY    42  30  62 CALM      30.33F
PETERSBURG     MOSUNNY   45  37  74 CALM      30.29F
$$




USA.gov is the U.S. government's official web portal to all federal, state and local government web resources and services.